Hourly Weather Dziadkowice

Today, 9 May, Sunday

Time Temperature Precipitation Wind Pressure Humidity
00:00 +2°C° 0 mm 2 mps 750 mmHg 91%
01:00 +2°C° 0 mm 2 mps 750 mmHg 91%
02:00 +2°C° 0 mm 2 mps 750 mmHg 91%
03:00 +1°C° 0 mm 2 mps 751 mmHg 90%
04:00 +1°C° 0 mm 2 mps 751 mmHg 90%
05:00 +1°C° 0 mm 2 mps 751 mmHg 90%
06:00 +3°C° 0 mm 2 mps 751 mmHg 85%
07:00 +5°C° 0 mm 2 mps 751 mmHg 80%
08:00 +7°C° 0 mm 3 mps 751 mmHg 75%
09:00 +9°C° 0 mm 3 mps 751 mmHg 69%
10:00 +10°C° 0 mm 4 mps 751 mmHg 63%
11:00 +12°C° 0 mm 5 mps 751 mmHg 57%
12:00 +13°C° 0 mm 5 mps 751 mmHg 56%
13:00 +14°C° 0 mm 5 mps 751 mmHg 54%
14:00 +15°C° 0 mm 5 mps 750 mmHg 52%
15:00 +14°C° 0 mm 5 mps 750 mmHg 56%
16:00 +14°C° 0 mm 4 mps 750 mmHg 60%
17:00 +14°C° 0 mm 4 mps 750 mmHg 64%
18:00 +13°C° 0 mm 4 mps 750 mmHg 68%
19:00 +12°C° 0 mm 4 mps 750 mmHg 71%
20:00 +11°C° 0 mm 4 mps 750 mmHg 75%
21:00 +10°C° 0 mm 4 mps 750 mmHg 77%
22:00 +10°C° 0 mm 4 mps 750 mmHg 80%
23:00 +8°C° 0 mm 4 mps 750 mmHg 82%

Tomorrow, 10 May, Monday

Time Temperature Precipitation Wind Pressure Humidity
00:00 +7°C° 0 mm 4 mps 750 mmHg 84%
01:00 +7°C° 0 mm 4 mps 750 mmHg 86%
02:00 +7°C° 0 mm 4 mps 750 mmHg 87%
03:00 +7°C° 0 mm 4 mps 750 mmHg 87%
04:00 +6°C° 0 mm 4 mps 750 mmHg 86%
05:00 +6°C° 0 mm 5 mps 750 mmHg 86%
06:00 +8°C° 0 mm 5 mps 750 mmHg 81%
07:00 +9°C° 0 mm 5 mps 750 mmHg 77%
08:00 +11°C° 0 mm 6 mps 750 mmHg 72%
09:00 +14°C° 0 mm 6 mps 750 mmHg 68%
10:00 +15°C° 0 mm 7 mps 750 mmHg 64%
11:00 +17°C° 0 mm 8 mps 750 mmHg 59%
12:00 +17°C° 0 mm 8 mps 750 mmHg 59%
13:00 +18°C° 0 mm 8 mps 750 mmHg 59%
14:00 +20°C° 0 mm 8 mps 750 mmHg 59%
15:00 +20°C° 0 mm 7 mps 749 mmHg 61%
16:00 +20°C° 0 mm 7 mps 749 mmHg 63%
17:00 +20°C° 0 mm 7 mps 749 mmHg 65%
18:00 +17°C° 0 mm 7 mps 749 mmHg 68%
19:00 +16°C° 0 mm 6 mps 749 mmHg 71%
20:00 +15°C° 0 mm 6 mps 750 mmHg 75%
21:00 +14°C° 0 mm 6 mps 750 mmHg 76%
22:00 +13°C° 0 mm 6 mps 750 mmHg 77%
23:00 +11°C° 0 mm 6 mps 750 mmHg 78%

Day after tomorrow, 11 May, Tuesday

Time Temperature Precipitation Wind Pressure Humidity
00:00 +11°C° 0 mm 6 mps 750 mmHg 79%
01:00 +10°C° 0 mm 6 mps 749 mmHg 80%
02:00 +10°C° 0 mm 6 mps 749 mmHg 81%
03:00 +9°C° 0 mm 6 mps 749 mmHg 81%
04:00 +9°C° 0 mm 6 mps 749 mmHg 81%
05:00 +9°C° 0 mm 6 mps 749 mmHg 81%
06:00 +10°C° 0 mm 7 mps 749 mmHg 78%
07:00 +11°C° 0 mm 7 mps 749 mmHg 76%
08:00 +12°C° 0 mm 8 mps 749 mmHg 73%
09:00 +13°C° 0 mm 8 mps 749 mmHg 69%
10:00 +16°C° 0 mm 8 mps 749 mmHg 65%
11:00 +17°C° 0 mm 9 mps 749 mmHg 61%
12:00 +18°C° 0 mm 9 mps 749 mmHg 60%
13:00 +20°C° 0 mm 8 mps 748 mmHg 59%
14:00 +21°C° 0 mm 8 mps 748 mmHg 58%
15:00 +20°C° 0 mm 8 mps 748 mmHg 59%
16:00 +20°C° 0 mm 8 mps 748 mmHg 60%
17:00 +18°C° 0 mm 8 mps 748 mmHg 60%
18:00 +17°C° 0 mm 7 mps 747 mmHg 63%
19:00 +15°C° 0 mm 6 mps 747 mmHg 65%
20:00 +14°C° 0 mm 6 mps 747 mmHg 67%
21:00 +13°C° 0 mm 6 mps 747 mmHg 66%
22:00 +13°C° 0 mm 6 mps 747 mmHg 65%
23:00 +11°C° 0 mm 6 mps 747 mmHg 64%

12 May, Wednesday

Time Temperature Precipitation Wind Pressure Humidity
00:00 +11°C° 0 mm 6 mps 747 mmHg 68%
01:00 +10°C° 0 mm 6 mps 747 mmHg 71%
02:00 +10°C° 0 mm 6 mps 747 mmHg 75%
03:00 +10°C° 0 mm 6 mps 747 mmHg 78%
04:00 +9°C° 0 mm 6 mps 746 mmHg 81%
05:00 +9°C° 0 mm 6 mps 746 mmHg 84%
06:00 +10°C° 0 mm 6 mps 746 mmHg 83%
07:00 +13°C° 0 mm 6 mps 746 mmHg 82%
08:00 +14°C° 0 mm 7 mps 746 mmHg 80%
09:00 +15°C° 0 mm 7 mps 746 mmHg 74%
10:00 +16°C° 0 mm 8 mps 746 mmHg 68%
11:00 +17°C° 0 mm 8 mps 746 mmHg 63%
12:00 +17°C° 0 mm 8 mps 745 mmHg 60%
13:00 +18°C° 0 mm 8 mps 745 mmHg 57%
14:00 +18°C° 0 mm 7 mps 745 mmHg 54%
15:00 +18°C° 0 mm 7 mps 745 mmHg 58%
16:00 +17°C° 0 mm 7 mps 744 mmHg 62%
17:00 +17°C° 0 mm 6 mps 744 mmHg 67%
18:00 +15°C° 0 mm 6 mps 744 mmHg 71%
19:00 +14°C° 0 mm 5 mps 744 mmHg 75%
20:00 +12°C° 0 mm 4 mps 743 mmHg 78%
21:00 +12°C° 0 mm 5 mps 743 mmHg 78%
22:00 +10°C° 0 mm 5 mps 743 mmHg 78%
23:00 +10°C° 0 mm 5 mps 743 mmHg 78%

13 May, Thursday

Time Temperature Precipitation Wind Pressure Humidity
00:00 +10°C° 0.1 mm 5 mps 743 mmHg 81%
01:00 +9°C° 0.1 mm 5 mps 743 mmHg 84%
02:00 +9°C° 0.1 mm 5 mps 743 mmHg 87%
03:00 +8°C° 0 mm 5 mps 743 mmHg 90%
04:00 +7°C° 0 mm 5 mps 743 mmHg 93%
05:00 +6°C° 0 mm 5 mps 743 mmHg 96%
06:00 +7°C° 0 mm 5 mps 743 mmHg 90%
07:00 +8°C° 0 mm 5 mps 742 mmHg 85%
08:00 +9°C° 0 mm 5 mps 742 mmHg 79%
09:00 +10°C° 0 mm 5 mps 742 mmHg 74%
10:00 +12°C° 0 mm 5 mps 742 mmHg 70%
11:00 +13°C° 0 mm 4 mps 741 mmHg 66%
12:00 +13°C° 0.1 mm 4 mps 741 mmHg 65%
13:00 +13°C° 0.1 mm 3 mps 741 mmHg 64%
14:00 +14°C° 0.1 mm 3 mps 740 mmHg 63%
15:00 +14°C° 0.1 mm 3 mps 740 mmHg 67%
16:00 +13°C° 0.1 mm 3 mps 740 mmHg 71%
17:00 +14°C° 0.1 mm 2 mps 740 mmHg 75%
18:00 +13°C° 0.1 mm 2 mps 740 mmHg 79%
19:00 +12°C° 0.1 mm 2 mps 740 mmHg 84%
20:00 +10°C° 0.1 mm 2 mps 740 mmHg 88%
21:00 +11°C° 0 mm 1 mps 740 mmHg 88%
22:00 +11°C° 0 mm 1 mps 740 mmHg 88%
23:00 +10°C° 0 mm 1 mps 739 mmHg 88%

14 May, Friday

Time Temperature Precipitation Wind Pressure Humidity
00:00 +10°C° 0 mm 1 mps 739 mmHg 89%
01:00 +9°C° 0 mm 1 mps 739 mmHg 89%
02:00 +9°C° 0 mm 1 mps 739 mmHg 89%
03:00 +8°C° 0 mm 1 mps 740 mmHg 90%
04:00 +8°C° 0 mm 1 mps 740 mmHg 91%
05:00 +8°C° 0 mm 1 mps 740 mmHg 92%
06:00 +9°C° 0 mm 1 mps 740 mmHg 88%
07:00 +10°C° 0 mm 2 mps 740 mmHg 84%
08:00 +13°C° 0 mm 2 mps 740 mmHg 80%
09:00 +13°C° 0 mm 2 mps 740 mmHg 77%
10:00 +14°C° 0 mm 2 mps 740 mmHg 73%
11:00 +14°C° 0 mm 3 mps 741 mmHg 70%
12:00 +14°C° 0 mm 3 mps 741 mmHg 71%
13:00 +14°C° 0 mm 3 mps 741 mmHg 73%
14:00 +14°C° 0 mm 3 mps 741 mmHg 75%
15:00 +13°C° 0 mm 3 mps 741 mmHg 77%
16:00 +14°C° 0 mm 2 mps 741 mmHg 79%
17:00 +14°C° 0 mm 2 mps 741 mmHg 81%
18:00 +14°C° 0 mm 2 mps 741 mmHg 83%
19:00 +13°C° 0 mm 2 mps 741 mmHg 86%
20:00 +13°C° 0 mm 1 mps 741 mmHg 88%
21:00 +12°C° 0 mm 1 mps 741 mmHg 89%
22:00 +12°C° 0 mm 1 mps 741 mmHg 91%
23:00 +11°C° 0 mm 1 mps 741 mmHg 92%
Show more